Location: New Plymouth
(39.0670°S, 174.0830°E)
Time: 10:07:07
(UTC+13:00)

SPOT 1/Viking Rocket - Pass Details

Date: 24 January 2019
Orbit: 777 x 795 km, 98.5° (Epoch: 19 February)

Event Time Altitude Azimuth Distance (km) Brightness Sun altitude
Rises 23:02:38 0° 157° (SSE) 3,333 7.2 -21.6°
Reaches altitude 10° 23:05:14 10° 147° (SSE) 2,395 6.3 -21.9°
Enters shadow 23:09:29 32° 94° (E) 1,350 4.5 -22.4°
